Weather History for KLRJ - April, 2014

Change the Weather History Date:

Tuesday, April 1, 2014

  Actual Average Record
Temperature  
Mean Temperature 27 °F -  
Max Temperature 37 °F 54 °F 91 °F (2012)
Min Temperature 17 °F 29 °F 14 °F (1975)
Degree Days  
Heating Degree Days 38    
Moisture  
Dew Point 17 °F    
Average Humidity 65    
Maximum Humidity 86    
Minimum Humidity 48    
Precipitation  
Precipitation 0.00 in - - ()
Sea Level Pressure  
Sea Level Pressure 30.03 in    
Wind  
Wind Speed 17 mph (NW)    
Max Wind Speed 31 mph    
Max Gust Speed 46 mph    
Visibility 10 miles    
Events Snow    
Averages and records for this station are not official NWS values.
T = Trace of Precipitation, MM = Missing Value Source: NWS Daily Summary

Daily Weather History Graph

Daily Weather History Graph

Search for Another Location

Airport or City:

Trip Planner

Search our weather history database for the weather conditions in past years. The results will help you decide how hot, cold, wet, or windy it might be!

Date:

Astronomy

Apr. 01, 2014 Rise Set
Actual Time 7:06 AM CDT 7:50 PM CDT
Civil Twilight 6:38 AM CDT 8:19 PM CDT
Nautical Twilight 6:04 AM CDT 8:53 PM CDT
Astronomical Twilight 5:29 AM CDT 9:28 PM CDT
Moon 8:07 AM CDT (4/1) 10:18 PM CDT (4/1)
Length of Visible Light 13h 41m
Length of Day
12h 44m
Waxing Crescent, 5% of the Moon is Illuminated
Apr 1
Waxing Crescent
Apr 7
First Quarter
Apr 15
Full
Apr 22
Last Quarter
Apr 29
New

Hourly Weather History & Observations

Time (CDT) Temp. Windchill Dew Point Humidity Pressure Visibility Wind Dir Wind Speed Gust Speed Precip Events Conditions
12:15 AM 19.4 °F 1.4 °F 12.2 °F 74% 29.86 in 9.0 mi WNW 26.5 mph 33.4 mph N/A   Overcast
12:35 AM 19.4 °F 0.2 °F 12.2 °F 74% 29.86 in 7.0 mi NW 31.1 mph 44.9 mph N/A Snow Light Snow
1:15 AM 19.4 °F 1.4 °F 12.2 °F 74% 29.87 in 10.0 mi NW 26.5 mph 42.6 mph N/A   Overcast
1:35 AM 19.4 °F 1.1 °F 14.0 °F 80% 29.88 in 9.0 mi NW 27.6 mph 46.0 mph N/A Snow Light Snow
1:55 AM 19.4 °F 0.5 °F 14.0 °F 80% 29.87 in 9.0 mi WNW 29.9 mph 38.0 mph N/A Snow Light Snow
2:15 AM 19.4 °F 2.8 °F 14.0 °F 80% 29.89 in 9.0 mi NW 21.9 mph 32.2 mph N/A Snow Light Snow
2:35 AM 19.4 °F 2.5 °F 12.2 °F 74% 29.90 in 10.0 mi NW 23.0 mph 31.1 mph N/A   Overcast
2:55 AM 19.4 °F 2.5 °F 12.2 °F 74% 29.90 in 10.0 mi NW 23.0 mph 29.9 mph N/A   Overcast
3:15 AM 19.4 °F 3.6 °F 12.2 °F 74% 29.92 in 10.0 mi NW 19.6 mph 31.1 mph N/A   Mostly Cloudy
3:35 AM 19.4 °F 3.6 °F 12.2 °F 74% 29.93 in 10.0 mi WNW 19.6 mph 28.8 mph N/A   Mostly Cloudy
3:55 AM 19.4 °F 3.2 °F 12.2 °F 74% 29.94 in 10.0 mi NW 20.7 mph 31.1 mph N/A   Mostly Cloudy
4:15 AM 19.4 °F 5.0 °F 12.2 °F 74% 29.95 in 10.0 mi NW 16.1 mph 26.5 mph N/A   Mostly Cloudy
4:35 AM 19.4 °F 5.5 °F 12.2 °F 74% 29.96 in 10.0 mi NW 15.0 mph 20.7 mph N/A   Mostly Cloudy
4:55 AM 19.4 °F 7.2 °F 12.2 °F 74% 29.98 in 10.0 mi NW 11.5 mph 26.5 mph N/A   Overcast
5:15 AM 19.4 °F 6.0 °F 14.0 °F 80% 29.99 in 10.0 mi NW 13.8 mph 21.9 mph N/A   Overcast
5:35 AM 19.4 °F 5.5 °F 14.0 °F 80% 29.98 in 10.0 mi NW 15.0 mph 24.2 mph N/A   Overcast
5:55 AM 19.4 °F 3.6 °F 12.2 °F 74% 29.96 in 10.0 mi NW 19.6 mph 26.5 mph N/A   Mostly Cloudy
6:15 AM 19.4 °F 4.1 °F 12.2 °F 74% 29.97 in 10.0 mi NW 18.4 mph 26.5 mph N/A   Partly Cloudy
6:35 AM 19.4 °F 5.5 °F 12.2 °F 74% 30.00 in 10.0 mi WNW 15.0 mph 25.3 mph N/A   Partly Cloudy
6:55 AM 17.6 °F 4.3 °F 12.2 °F 79% 30.01 in 10.0 mi WNW 12.7 mph 20.7 mph N/A   Mostly Cloudy
7:15 AM 17.6 °F 3.2 °F 14.0 °F 86% 30.02 in 10.0 mi WNW 15.0 mph 21.9 mph N/A   Scattered Clouds
7:35 AM 17.6 °F 1.7 °F 12.2 °F 79% 30.01 in 10.0 mi WNW 18.4 mph - N/A   Partly Cloudy
7:55 AM 17.6 °F 4.3 °F 12.2 °F 79% 30.03 in 10.0 mi NW 12.7 mph 23.0 mph N/A   Clear
8:15 AM 19.4 °F 5.0 °F 12.2 °F 74% 30.04 in 10.0 mi NW 16.1 mph 23.0 mph N/A   Clear
8:35 AM 19.4 °F 4.1 °F 12.2 °F 74% 30.04 in 10.0 mi NW 18.4 mph 24.2 mph N/A   Clear
8:55 AM 21.2 °F 10.1 °F 14.0 °F 74% 30.05 in 10.0 mi WNW 10.4 mph 18.4 mph N/A   Clear
9:15 AM 21.2 °F 7.3 °F 14.0 °F 74% 30.06 in 10.0 mi WNW 16.1 mph - N/A   Clear
9:35 AM 23.0 °F 10.6 °F 14.0 °F 68% 30.07 in 10.0 mi WNW 13.8 mph 20.7 mph N/A   Clear
9:55 AM 24.8 °F 12.4 °F 14.0 °F 64% 30.08 in 10.0 mi NW 15.0 mph 23.0 mph N/A   Clear
10:15 AM 24.8 °F 12.4 °F 14.0 °F 64% 30.09 in 10.0 mi NW 15.0 mph - N/A   Clear
10:35 AM 26.6 °F 13.8 °F 14.0 °F 59% 30.09 in 10.0 mi NW 17.3 mph 23.0 mph N/A   Clear
10:55 AM 26.6 °F 15.2 °F 14.0 °F 59% 30.10 in 10.0 mi WNW 13.8 mph 21.9 mph N/A   Clear
11:15 AM 28.4 °F 19.7 °F 14.0 °F 55% 30.10 in 10.0 mi NW 9.2 mph 19.6 mph N/A   Clear
11:35 AM 30.2 °F 19.8 °F 15.8 °F 55% 30.09 in 10.0 mi NW 13.8 mph 20.7 mph N/A   Clear
11:55 AM 32.0 °F 22.5 °F 15.8 °F 51% 30.09 in 10.0 mi WNW 12.7 mph - N/A   Clear
12:15 PM 32.0 °F 22.5 °F 17.6 °F 55% 30.08 in 10.0 mi NW 12.7 mph - N/A   Clear
12:35 PM 33.8 °F 24.8 °F 17.6 °F 52% 30.07 in 10.0 mi NW 12.7 mph - N/A   Clear
12:55 PM 37.4 °F 29.3 °F 19.4 °F 48% 30.06 in 10.0 mi WNW 12.7 mph - N/A   Clear
1:15 PM 37.4 °F 29.3 °F 19.4 °F 48% 30.07 in 10.0 mi NW 12.7 mph - N/A   Clear
1:35 PM 37.4 °F 29.8 °F 19.4 °F 48% 30.07 in 10.0 mi WNW 11.5 mph 18.4 mph N/A   Clear
1:55 PM 35.6 °F 27.5 °F 19.4 °F 52% 30.07 in 10.0 mi NW 11.5 mph - N/A   Clear
2:15 PM 37.4 °F 29.8 °F 19.4 °F 48% 30.06 in 10.0 mi NW 11.5 mph - N/A   Clear
2:35 PM 37.4 °F 30.3 °F 19.4 °F 48% 30.07 in 10.0 mi WNW 10.4 mph 16.1 mph N/A   Clear
2:55 PM 37.4 °F 30.8 °F 21.2 °F 52% 30.07 in 10.0 mi WNW 9.2 mph 17.3 mph N/A   Clear
3:15 PM 37.4 °F 30.3 °F 21.2 °F 52% 30.06 in 10.0 mi WNW 10.4 mph - N/A   Clear
3:35 PM 37.4 °F 31.4 °F 21.2 °F 52% 30.06 in 10.0 mi West 8.1 mph 15.0 mph N/A   Clear
3:55 PM 37.4 °F 30.8 °F 21.2 °F 52% 30.06 in 10.0 mi West 9.2 mph 15.0 mph N/A   Clear
4:15 PM 37.4 °F 30.8 °F 21.2 °F 52% 30.06 in 10.0 mi WNW 9.2 mph - N/A   Clear
4:35 PM 37.4 °F 31.4 °F 21.2 °F 52% 30.06 in 10.0 mi West 8.1 mph - N/A   Clear
4:55 PM 37.4 °F 30.8 °F 21.2 °F 52% 30.07 in 10.0 mi WNW 9.2 mph - N/A   Scattered Clouds
5:15 PM 37.4 °F 30.8 °F 21.2 °F 52% 30.07 in 10.0 mi WNW 9.2 mph - N/A   Partly Cloudy
5:35 PM 37.4 °F 31.4 °F 21.2 °F 52% 30.07 in 10.0 mi West 8.1 mph - N/A   Clear
5:55 PM 37.4 °F 32.8 °F 21.2 °F 52% 30.07 in 10.0 mi WNW 5.8 mph - N/A   Partly Cloudy
6:15 PM 37.4 °F 32.8 °F 21.2 °F 52% 30.06 in 10.0 mi NNW 5.8 mph - N/A   Partly Cloudy
6:35 PM 37.4 °F 32.1 °F 21.2 °F 52% 30.06 in 10.0 mi NNW 6.9 mph - N/A   Scattered Clouds
6:55 PM 37.4 °F 31.4 °F 21.2 °F 52% 30.05 in 10.0 mi North 8.1 mph - N/A   Mostly Cloudy
7:15 PM 37.4 °F 29.8 °F 21.2 °F 52% 30.05 in 10.0 mi North 11.5 mph - N/A   Overcast
7:35 PM 35.6 °F 28.6 °F 21.2 °F 56% 30.05 in 10.0 mi North 9.2 mph 15.0 mph N/A   Overcast
7:55 PM 35.6 °F 30.7 °F 21.2 °F 56% 30.06 in 10.0 mi NNW 5.8 mph - N/A   Overcast
8:15 PM 33.8 °F - 21.2 °F 60% 30.07 in 10.0 mi Calm Calm - N/A   Overcast
8:35 PM 33.8 °F 29.6 °F 21.2 °F 60% 30.07 in 10.0 mi WNW 4.6 mph - N/A   Overcast
8:55 PM 33.8 °F 30.8 °F 21.2 °F 60% 30.09 in - West 3.5 mph - N/A   Overcast
9:15 PM 30.2 °F 24.3 °F 19.4 °F 64% 30.10 in 10.0 mi West 5.8 mph - N/A   Overcast
9:35 PM 30.2 °F 26.7 °F 21.2 °F 69% 30.10 in 10.0 mi Variable 3.5 mph - N/A   Overcast
9:55 PM 30.2 °F - 19.4 °F 64% 30.10 in 10.0 mi Calm Calm - N/A   Overcast
10:15 PM 30.2 °F 25.4 °F 21.2 °F 69% 30.10 in 10.0 mi North 4.6 mph - N/A   Overcast
10:35 PM 28.4 °F 24.6 °F 21.2 °F 74% 30.10 in 10.0 mi NE 3.5 mph - N/A   Overcast
10:55 PM 28.4 °F - 21.2 °F 74% 30.11 in 10.0 mi Calm Calm - N/A   Mostly Cloudy
11:15 PM 24.8 °F - 19.4 °F 80% 30.11 in 10.0 mi Calm Calm - N/A   Clear
11:35 PM 23.0 °F - 19.4 °F 86% 30.12 in 10.0 mi Calm Calm - N/A   Clear
11:55 PM 24.8 °F 20.5 °F 19.4 °F 80% 30.12 in 10.0 mi NNE 3.5 mph - N/A   Clear